CAPE
1404 1781 2391 2656 2506 2235 2115 2064 2101 2274 2537 2811 2866 2914 2944 2865 2724 2781 2859 2935 3071 3077 2703 2659 2254 2196 2388 2495 2485 2444 2478 2359 2287 2326 2261 1855 1795 1789 1694 1739 1877 1487 1902
1390 1931 2336 2582 2518 2355 2184 2145 2121 2360 2569 2724 2735 2742 2739 2759 2800 2875 2953 3019 3146 2827 2649 2621 2339 1964 2010 2147 2213 2291 2268 2077 2045 2192 2366 2196 1782 1641 1645 1653 1822 1818 2013
1823 2074 2271 2457 2493 2468 2371 2359 2378 2633 2738 2742 2698 2610 2634 2715 2822 2862 2939 3053 3093 2698 2475 2387 2055 1723 1762 1902 2061 2160 2162 2118 2014 2099 2087 1574 1602 1712 1657 1705 1948 1810 1776
2122 2069 2173 2411 2460 2493 2372 2337 2461 2686 2683 2623 2630 2665 2668 2699 2726 2799 2767 2734 2819 2724 2313 2128 1764 1528 1679 1819 1817 1914 1933 1757 1658 1610 1384 1699 1756 1721 1647 1617 1638 1693 1756
2229 2062 2152 2383 2439 2402 2308 2323 2420 2441 2387 2354 2407 2631 2719 2738 2705 2708 2493 2544 2795 2719 2347 2168 1850 1631 1497 1458 1507 1605 1583 1357 1108 907 964 1254 1404 1535 1658 1721 1776 1950 1883
2096 2211 2076 2246 2403 2381 2335 2321 2354 2198 2002 2054 2216 2433 2533 2615 2626 2431 2245 2519 2895 2835 2702 2497 2219 1764 1017 1006 1213 1343 1272 1152 514 551 799 1414 1260 1374 1703 1845 1900 1882 1827
2013 2113 1981 2139 2299 2396 2457 2371 2260 2087 1860 1889 2142 2173 2271 2395 2355 2043 1971 2316 2711 2913 2933 2881 2423 1433 894 737 869 1010 1100 1099 267 148 660 1117 1122 1542 1594 1735 1724 1858 1819
1450 1685 1909 2015 2169 2302 2370 2262 2127 2064 1913 1815 1846 2025 2138 2166 2087 1873 1852 2112 2419 2629 2660 2669 2315 1475 920 735 706 603 709 645 321 156 618 740 1247 1794 1455 1517 1725 1665 1662
1224 1358 1539 1882 2143 2274 2231 2198 2065 2006 1962 1918 1842 1828 1966 1985 1899 1878 1829 1986 2286 2409 2490 2508 2316 1694 1017 787 623 483 447 468 110 313 596 599 1850 1638 1160 1251 1549 1516 1578
955 1254 1287 1386 1548 1571 1733 1650 2239 2135 2029 1947 1919 1886 1842 1898 1888 1822 1705 1721 2062 2305 2356 2377 2217 1856 1314 867 652 488 363 301 1 221 524 649 1836 1516 1329 1317 1209 1376 1433
191 267 992 1317 1303 1246 1299 1312 1775 2052 2087 1989 1921 1931 1746 1275 1472 1563 1538 1532 1518 1834 2104 2179 2070 1896 1569 1160 750 534 346 107 0 26 249 683 1862 1685 1212 1246 1307 1498 1474
0 6 249 1222 1022 1093 1548 1374 1344 1406 1466 1407 1698 1647 1538 1359 1510 1404 1519 1576 1486 1380 1527 1684 1819 1741 1381 811 551 493 212 42 5 0 93 438 1677 1973 1481 1765 901 1445 1437
0 0 2 70 67 499 687 765 1012 1213 1153 1095 1191 1203 1217 1301 1307 1426 1388 1451 1412 1240 953 1064 1092 1102 1254 1155 673 508 241 9 55 23 9 81 1244 2145 2111 1971 1431 1249 1343
0 0 0 0 0 0 0 1 1 0 1 0 0 0 42 707 771 860 1134 1000 1119 979 1070 907 952 996 970 940 712 395 105 75 82 57 3 0 446 2047 2390 1940 1423 1040 1336
0 0 0 0 0 0 0 0 0 0 0 0 0 0 0 0 0 0 0 0 24 232 841 951 1004 933 821 646 536 428 136 9 4 8 2 0 15 1067 2354 2477 1900 1257 1153
0 0 0 0 0 0 0 0 0 0 0 0 0 0 0 0 0 0 0 0 0 0 0 77 814 986 795 655 468 386 332 85 0 0 6 0 0 278 1522 2211 2384 2035 1429
0 0 0 0 0 0 0 0 0 0 0 0 0 0 0 0 0 0 0 0 0 0 0 0 0 189 808 785 639 464 354 250 72 0 0 0 0 0 410 1526 1783 1964 1755
0 0 0 0 0 0 0 0 0 0 0 0 0 0 0 0 0 0 0 0 0 0 0 0 0 0 0 5 483 489 379 307 248 150 21 0 0 0 3 585 1344 1661 1426
0 0 0 0 0 0 0 0 0 0 0 0 0 0 0 0 0 0 0 0 0 0 0 0 0 0 0 0 0 0 104 351 245 161 114 19 0 0 10 157 492 972 998
0 0 0 0 0 0 0 0 0 0 0 0 0 0 0 0 0 0 0 0 0 0 0 0 0 0 0 0 0 0 0 0 380 184 79 54 6 0 1 91 343 457 320
0 0 0 0 0 0 0 0 0 0 0 0 0 0 0 0 0 0 0 0 0 0 0 0 0 1 0 0 0 0 0 0 0 50 107 99 47 3 5 24 271 533 334
0 0 0 0 0 0 0 0 0 0 0 0 0 0 0 0 0 0 0 0 0 0 0 0 0 0 0 2 15 2 0 0 0 0 0 38 113 53 29 66 174 313 519
0 0 0 0 0 0 0 0 0 0 0 0 0 0 0 0 0 0 0 0 0 0 0 0 0 0 1 2 0 11 16 4 4 0 0 0 0 0 29 72 175 280 299
0 0 0 0 0 0 0 0 0 0 0 0 0 0 0 0 0 0 0 0 0 0 0 0 1 1 2 0 0 0 16 41 35 12 0 0 0 0 0 0 2 117 281
0 0 0 0 0 0 0 0 0 0 0 0 0 0 0 0 0 0 0 0 0 0 0 0 0 0 0 1 1 2 0 0 0 18 14 3 0 0 0 0 0 0 7
0 0 0 0 0 0 0 0 0 0 0 0 0 0 0 0 0 0 0 0 0 0 0 0 0 0 0 0 0 0 3 6 2 4 12 2 31 1 0 0 0 0 0
CIN
-442 -386 -255 -231 -241 -284 -312 -358 -364 -331 -269 -219 -189 -140 -115 -101 -106 -85 -54 -32 -1 -0 -14 -14 -54 -51 -35 -16 -13 -14 -9 -5 -1 -0 -0 -3 -0 -0 -0 -0 -0 -0 -0
-515 -409 -278 -231 -263 -285 -295 -313 -314 -263 -222 -189 -190 -180 -162 -139 -106 -60 -35 -14 -0 -4 -9 -14 -26 -68 -59 -31 -26 -25 -24 -34 -23 -5 -0 -0 -3 -0 -0 -0 -0 -0 -0
-482 -407 -295 -249 -243 -237 -236 -252 -247 -206 -191 -177 -177 -175 -165 -138 -90 -53 -35 -19 -4 -11 -15 -20 -49 -91 -83 -54 -38 -36 -33 -37 -38 -15 -6 -30 -10 -0 -0 -0 -0 -0 -0
-395 -389 -318 -237 -230 -239 -256 -258 -229 -180 -176 -175 -170 -165 -148 -115 -88 -72 -60 -45 -22 -15 -37 -45 -78 -118 -93 -58 -55 -50 -51 -70 -77 -55 -69 -12 -0 -0 -0 -0 -0 -0 -0
-351 -345 -315 -261 -241 -235 -239 -245 -208 -181 -180 -179 -170 -146 -128 -110 -107 -87 -84 -71 -48 -46 -58 -60 -79 -111 -139 -133 -99 -75 -84 -113 -144 -159 -128 -62 -20 -0 -0 -0 -0 -0 -0
-364 -307 -321 -308 -281 -265 -252 -249 -215 -204 -200 -180 -159 -127 -114 -108 -108 -121 -135 -92 -36 -21 -19 -25 -39 -93 -221 -214 -151 -113 -114 -129 -241 -220 -134 -37 -41 -7 -0 -0 -0 -0 -0
-414 -365 -377 -330 -286 -248 -216 -205 -198 -198 -211 -195 -153 -131 -109 -98 -102 -133 -137 -102 -58 -35 -15 -7 -22 -121 -211 -245 -200 -151 -115 -120 -282 -335 -163 -76 -55 -3 -0 -0 -0 -0 -0
-435 -374 -320 -279 -235 -208 -188 -185 -191 -185 -195 -197 -187 -152 -120 -106 -111 -127 -122 -95 -67 -51 -44 -27 -37 -108 -183 -224 -232 -253 -199 -189 -245 -302 -160 -143 -36 -0 -5 -2 -0 -0 -0
-461 -408 -348 -264 -215 -184 -172 -170 -185 -174 -173 -177 -177 -167 -138 -131 -135 -126 -117 -94 -62 -49 -45 -36 -39 -81 -141 -174 -214 -263 -260 -213 -344 -241 -167 -159 -0 -8 -33 -17 -0 -0 -0
-567 -461 -421 -369 -309 -271 -219 -237 -129 -137 -147 -139 -129 -130 -128 -121 -124 -132 -132 -106 -66 -41 -25 -25 -27 -41 -85 -135 -178 -232 -285 -295 -521 -265 -189 -151 -0 -9 -16 -13 -13 -0 -0
-785 -741 -483 -388 -376 -349 -308 -286 -179 -114 -76 -73 -81 -79 -97 -152 -124 -124 -127 -117 -103 -60 -26 -16 -17 -15 -46 -87 -137 -193 -255 -407 -0 -346 -291 -161 -0 -0 -19 -30 -5 -0 -0
-0 -772 -669 -401 -434 -397 -254 -252 -234 -191 -147 -129 -60 -52 -77 -90 -38 -61 -64 -75 -74 -79 -64 -40 -16 -18 -34 -102 -142 -147 -284 -448 -511 -0 -359 -207 -5 -0 -0 -0 -62 -0 -0
-0 -0 -119 -710 -730 -537 -465 -387 -288 -202 -194 -173 -151 -125 -98 -54 -31 -27 -28 -22 -37 -41 -89 -65 -63 -44 -30 -45 -90 -108 -179 -402 -393 -423 -468 -307 -51 -0 -0 -1 -3 -7 -0
-0 -0 -0 -0 -0 -0 -0 -0 -0 -0 -0 -0 -0 -0 -398 -153 -135 -82 -17 -34 -31 -35 -19 -42 -42 -33 -30 -32 -51 -88 -182 -218 -290 -345 -223 -0 -141 -0 -0 -0 -1 -11 -0
-0 -0 -0 -0 -0 -0 -0 -0 -0 -0 -0 -0 -0 -0 -0 -0 -0 -0 -0 -0 -212 -102 -36 -19 -13 -18 -32 -63 -71 -77 -168 -250 -184 -290 -323 -34 -301 -47 -0 -0 -0 -5 -8
-0 -0 -0 -0 -0 -0 -0 -0 -0 -0 -0 -0 -0 -0 -0 -0 -0 -0 -0 -0 -0 -0 -0 -154 -26 -5 -20 -46 -82 -95 -130 -167 -0 -23 -284 -0 -0 -145 -8 -0 -0 -0 -3
-0 -0 -0 -0 -0 -0 -0 -0 -0 -0 -0 -0 -0 -0 -0 -0 -0 -0 -0 -0 -0 -0 -0 -0 -0 -153 -19 -20 -37 -86 -119 -140 -200 -5 -0 -0 -0 -8 -99 -2 -1 -0 -0
-0 -0 -0 -0 -0 -0 -0 -0 -0 -0 -0 -0 -0 -0 -0 -0 -0 -0 -0 -0 -0 -0 -0 -0 -0 -0 -0 -0 -70 -45 -88 -119 -142 -188 -220 -0 -0 -0 -64 -65 -5 -1 -5
-0 -0 -0 -0 -0 -0 -0 -0 -0 -0 -0 -0 -0 -0 -0 -0 -0 -0 -0 -0 -0 -0 -0 -0 -0 -0 -0 -0 -0 -0 -71 -74 -107 -143 -162 -218 -0 -0 -181 -175 -80 -19 -14
-0 -0 -0 -0 -0 -0 -0 -0 -0 -0 -0 -0 -0 -0 -0 -0 -0 -0 -0 -0 -0 -0 -0 -0 -0 -0 -0 -0 -0 -0 -0 -0 -47 -92 -106 -113 -142 -0 -198 -83 -72 -55 -104
-0 -0 -0 -0 -0 -0 -0 -0 -0 -0 -0 -0 -0 -0 -0 -0 -0 -0 -0 -0 -0 -0 -0 -0 -0 -0 -0 -0 -0 -0 -0 -0 -0 -85 -115 -88 -110 -205 -200 -75 -5 -16 -65
-0 -0 -0 -0 -0 -0 -0 -0 -0 -0 -0 -0 -0 -0 -0 -0 -0 -0 -0 -0 -0 -0 -0 -0 -0 -0 -1 -13 -2 -2 -0 -0 -0 -0 -0 -1 -86 -109 -169 -114 -16 -2 -1
-0 -0 -0 -0 -0 -0 -0 -0 -0 -0 -0 -0 -0 -0 -0 -0 -0 -0 -0 -0 -0 -0 -0 -0 -0 -0 -0 -2 -0 -6 -8 -11 -6 -0 -0 -0 -0 -0 -6 -81 -46 -7 -2
-0 -0 -0 -0 -0 -0 -0 -0 -0 -0 -0 -0 -0 -0 -0 -0 -0 -0 -0 -0 -0 -0 -0 -0 -0 -0 -1 -0 -0 -0 -8 -3 -1 -1 -0 -0 -0 -0 -0 -0 -0 -13 -7
-0 -0 -0 -0 -0 -0 -0 -0 -0 -0 -0 -0 -0 -0 -0 -0 -0 -0 -0 -0 -0 -0 -0 -0 -0 -0 -0 -0 -0 -0 -0 -0 -0 -4 -4 -4 -0 -0 -0 -0 -0 -0 -0
-0 -0 -0 -0 -0 -0 -0 -0 -0 -0 -0 -0 -0 -0 -0 -0 -0 -0 -0 -0 -0 -0 -0 -0 -0 -0 -0 -0 -0 -0 -0 -0 -0 -0 -0 -3 -3 -3 -0 -0 -0 -0 -0
Wind_Speed
5 7 10 13 12 12 13 13 13 13 16 17 17 16 15 15 14 13 12 11 11 11 11 9 9 9 11 12 12 12 11 11 11 12 13 14 14 13 13 13 10 11 12
10 10 10 10 12 13 12 13 13 12 12 13 15 16 15 15 14 12 12 11 10 11 10 9 8 8 9 10 11 11 11 11 11 10 11 14 14 12 12 12 11 10 11
9 10 8 8 10 11 9 11 11 12 13 12 13 13 13 13 13 12 11 10 9 9 8 7 7 7 8 9 9 11 10 10 10 10 10 4 6 12 12 11 11 11 11
7 8 6 7 7 10 11 10 10 10 11 11 12 13 13 13 12 12 11 10 9 9 9 7 7 7 8 8 8 9 9 10 11 9 5 4 7 11 11 12 12 13 11
7 5 6 9 7 7 8 10 9 8 9 9 10 11 12 13 13 11 10 9 9 10 10 9 8 8 8 9 9 8 9 9 10 8 5 4 3 9 12 11 10 11 11
7 6 7 9 9 9 8 9 9 8 7 7 8 8 9 10 10 11 11 10 8 8 8 8 8 7 9 9 9 10 10 9 8 5 4 6 4 10 12 10 8 8 10
7 5 7 8 8 8 7 7 7 7 7 7 7 7 6 7 7 8 8 9 9 9 8 8 7 7 8 9 9 9 8 7 4 4 4 4 4 11 12 11 10 9 9
6 6 6 5 5 4 5 5 4 4 5 5 5 6 6 6 6 7 8 8 8 9 9 9 8 7 8 9 9 8 8 7 4 4 5 4 7 11 12 13 11 10 9
7 6 5 4 4 5 4 3 3 3 4 4 3 3 3 5 5 6 7 9 8 8 8 8 9 8 8 8 8 7 7 7 4 3 5 4 11 12 12 13 13 12 12
8 6 5 5 4 4 4 3 1 2 2 2 2 3 4 5 5 6 7 7 8 8 8 8 8 7 8 7 8 8 8 8 5 5 4 5 11 14 13 14 15 14 13
7 7 5 4 4 4 3 3 4 4 4 3 3 4 2 3 4 4 4 5 8 8 9 8 7 9 9 8 8 9 8 4 5 5 5 11 13 16 15 15 14 14 14
5 5 5 6 5 4 2 3 3 3 4 3 3 4 2 3 5 6 4 5 7 8 9 9 9 9 8 3 3 7 3 4 5 5 5 13 15 18 16 16 17 15 15
4 5 6 8 6 5 5 4 2 2 2 2 3 4 2 2 2 3 2 2 2 5 4 4 5 5 7 6 5 5 6 5 5 5 7 13 16 20 18 18 17 18 15
6 5 6 6 8 8 6 7 7 6 7 6 6 10 8 5 5 4 3 3 3 2 5 6 5 6 8 9 9 8 8 8 6 5 6 13 18 21 20 21 20 20 17
8 6 7 6 9 8 10 7 6 6 7 6 5 9 6 5 4 4 5 6 6 6 4 6 6 7 8 9 9 10 11 11 10 6 5 13 17 21 23 23 24 23 22
6 7 6 7 6 8 9 7 6 5 6 6 7 7 9 6 5 5 5 5 5 5 5 6 6 6 7 7 9 11 12 10 9 8 6 7 16 20 24 24 25 25 25
5 6 8 8 7 10 9 8 6 6 5 7 7 8 8 6 6 4 5 4 5 5 6 5 6 6 7 7 10 10 10 12 11 11 9 8 9 19 22 24 25 26 25
7 8 7 7 8 9 8 6 6 6 6 6 6 5 8 7 7 5 4 2 3 3 4 4 5 5 5 7 7 8 9 10 13 14 12 11 10 10 17 25 25 26 26
6 7 8 7 7 7 6 7 6 7 5 4 4 4 6 6 5 4 4 4 5 4 4 3 4 3 4 6 6 5 8 9 11 9 13 14 15 13 11 21 27 26 27
6 6 7 6 7 6 4 5 5 5 4 4 4 4 6 4 5 4 3 3 3 3 3 3 4 3 3 5 7 8 6 6 8 9 11 10 13 15 15 16 15 17 27
5 6 5 7 3 2 3 4 3 3 2 3 4 5 5 5 5 5 3 3 3 3 4 4 2 7 4 3 3 6 4 9 10 8 9 10 13 14 16 15 13 13 14
6 5 5 6 5 3 2 3 3 2 1 2 3 6 7 7 7 5 4 5 5 3 4 4 3 5 3 1 2 5 4 6 5 5 4 7 10 11 15 18 19 19 17
6 5 4 4 5 4 4 2 3 3 2 2 2 2 4 6 7 6 5 5 5 3 3 4 3 5 4 3 2 2 4 3 9 3 6 6 5 7 10 15 20 21 21
5 3 4 4 5 4 4 4 4 2 2 1 2 3 5 5 6 5 5 5 5 4 4 4 4 3 2 3 3 2 4 5 5 9 2 6 8 9 6 8 11 18 21
5 5 3 2 5 6 3 4 4 3 1 2 2 4 3 4 4 4 4 5 5 4 4 5 4 4 1 3 2 3 4 3 5 6 11 9 9 6 6 7 9 11 17
6 6 6 4 4 4 2 3 4 2 2 3 3 3 3 3 3 3 4 3 4 4 5 5 5 5 4 3 2 3 4 5 7 7 12 13 11 13 7 9 10 10 10
Wind_Direction
221 157 179 159 150 140 135 132 126 122 121 122 122 124 126 128 133 134 131 126 134 139 135 123 111 109 109 109 110 106 102 101 101 109 114 113 111 110 107 99 84 96 105
143 150 180 169 147 142 140 129 125 123 120 121 125 127 127 131 132 129 130 132 137 143 139 124 114 107 108 111 111 106 105 105 110 119 126 121 119 117 109 100 95 104 107
139 138 169 164 141 131 125 119 124 127 127 127 125 127 131 131 128 131 132 134 138 134 127 116 112 112 112 113 112 114 110 104 101 108 98 91 110 120 116 109 110 113 110
128 128 137 148 135 132 132 128 126 130 126 130 134 137 138 136 138 140 140 137 135 137 136 136 128 124 125 119 116 117 117 111 108 104 101 111 120 124 124 128 129 130 130
94 112 136 143 132 129 127 123 122 121 125 132 138 144 147 148 147 145 143 143 144 151 157 153 145 144 136 130 130 130 129 127 120 112 109 111 112 142 142 141 140 136 139
106 118 136 145 148 148 140 133 132 128 130 134 138 150 150 149 149 149 151 155 157 164 164 159 157 157 149 144 149 150 151 141 111 123 131 140 142 158 151 144 138 136 138
140 146 148 149 152 152 139 130 133 139 142 149 149 147 141 142 152 156 166 171 173 172 174 165 168 173 163 158 163 161 168 172 144 160 157 147 176 170 161 157 150 142 138
63 53 62 77 74 129 138 140 137 145 149 149 154 159 165 167 172 176 185 194 196 191 186 181 183 191 186 180 173 175 176 185 163 175 173 165 198 175 176 167 156 149 145
69 72 72 78 102 101 105 139 160 166 174 177 175 175 195 195 196 199 208 211 213 216 206 194 195 201 211 203 190 189 183 188 174 172 176 183 196 186 184 179 167 161 155
66 71 64 62 54 32 13 354 250 210 205 211 221 231 236 235 223 213 222 236 235 232 230 221 210 209 222 215 213 203 192 192 189 188 189 192 199 192 191 185 181 174 169
50 46 54 57 57 60 56 27 17 17 360 344 305 271 288 283 273 264 247 237 252 252 248 239 223 218 220 223 215 214 205 202 198 199 191 196 201 200 203 191 190 183 188
60 48 48 74 74 86 75 73 66 51 43 19 358 336 326 312 291 279 258 258 265 262 253 246 241 225 225 231 239 227 223 206 214 208 201 199 201 205 208 195 198 196 199
122 76 54 79 62 79 84 108 93 87 73 55 40 5 336 332 301 293 280 290 287 278 269 268 257 244 238 230 223 228 235 221 219 217 212 205 204 208 211 202 203 201 202
71 75 64 62 78 66 58 61 68 65 69 65 48 55 46 17 9 339 315 338 302 269 271 252 243 241 237 238 236 230 224 232 228 220 222 207 209 213 214 207 202 209 208
84 61 50 84 96 89 86 90 79 87 90 94 74 59 63 75 23 36 46 34 20 349 289 253 245 243 244 240 237 228 221 225 227 215 215 213 210 213 217 210 203 212 205
91 75 63 57 53 81 86 66 60 53 59 64 65 61 56 46 61 24 29 13 16 344 343 321 296 243 239 234 236 234 235 232 236 229 225 222 215 215 218 217 207 206 209
93 95 75 65 51 64 64 67 69 67 65 59 50 41 45 48 48 359 43 4 352 345 334 326 329 321 260 238 236 228 229 228 223 225 216 218 217 222 220 223 217 206 206
99 87 74 80 78 80 79 71 73 68 63 58 54 46 43 32 24 12 27 357 336 338 318 335 333 332 340 325 286 241 231 231 233 226 222 218 217 217 218 219 219 210 207
97 96 88 82 78 84 95 92 76 77 61 61 61 48 34 28 21 23 7 350 343 333 340 339 327 316 317 315 306 321 296 247 231 237 232 220 221 221 222 216 218 212 204
89 86 86 79 87 88 76 71 62 61 56 50 37 37 30 11 3 8 360 355 347 342 334 338 329 317 281 293 311 290 276 281 263 239 228 236 230 222 224 226 214 214 206
104 105 95 100 90 100 68 89 77 76 49 38 23 13 2 347 342 344 342 343 345 347 320 313 294 344 324 311 318 318 276 258 257 243 231 232 228 228 222 223 225 217 210
142 116 107 99 82 56 65 81 96 116 106 77 1 350 343 340 331 319 335 344 339 333 331 326 342 336 269 331 305 288 332 330 30 346 327 304 270 237 228 223 221 220 216
145 149 135 114 98 69 61 81 68 60 36 11 344 323 320 322 311 313 317 337 325 328 311 303 294 335 326 319 307 248 321 283 329 297 321 306 9 336 286 234 227 224 215
162 139 122 127 109 98 80 78 83 116 51 347 322 303 305 303 306 319 322 320 310 309 306 297 311 313 314 320 308 256 268 297 305 300 299 299 280 272 268 275 320 246 214
153 140 113 136 108 72 76 84 83 62 270 280 271 298 307 303 309 323 322 318 317 313 302 293 317 330 283 313 280 307 306 280 240 268 294 294 290 270 261 266 272 270 304
180 179 165 163 87 87 113 76 77 65 340 355 339 336 327 308 319 320 346 331 327 330 337 336 327 326 310 289 280 279 271 283 293 290 292 288 275 295 280 271 255 255 275